Date,TemperatureHighF,TemperatureAvgF,TemperatureLowF,DewpointHighF,DewpointAvgF,DewpointLowF,HumidityHigh,HumidityAvg,HumidityLow,PressureMaxIn,PressureMinIn,WindSpeedMaxMPH,WindSpeedAvgMPH,GustSpeedMaxMPH,PrecipitationSumIn
2014-1-1,9.9,5.1,0.1,0.6,-3.0,-8.7,74,69,63,30.41,30.33,2,0,6,0.00
2014-1-2,11.1,5.0,-7.5,1.4,-3.5,-14.4,77,67,58,30.49,30.29,3,0,10,0.00
2014-1-3,17.5,3.9,-11.7,11.2,-3.1,-18.2,77,72,62,30.47,29.78,8,1,13,0.00
2014-1-4,31.9,24.4,15.4,25.7,16.8,5.4,79,73,62,30.10,29.72,6,1,13,0.00
2014-1-5,15.4,4.6,-9.3,5.5,-7.6,-21.1,65,56,44,30.21,30.09,12,2,18,0.00
2014-1-6,-9.3,-14.3,-19.3,-20.8,-25.7,-30.8,61,55,47,30.30,30.17,10,3,21,0.00
2014-1-7,0.7,-7.9,-15.8,-12.1,-18.0,-25.3,67,60,52,30.35,30.26,4,0,8,0.00
2014-1-8,7.9,-3.0,-10.0,-5.5,-12.3,-17.1,76,64,52,30.57,30.33,1,0,5,0.00
2014-1-9,22.1,5.0,-13.0,19.1,-1.4,-20.0,88,74,66,30.57,30.13,3,0,7,0.00
2014-1-10,35.5,29.7,22.1,33.9,27.7,19.1,94,92,88,30.12,29.45,5,1,11,0.28
2014-1-11,35.5,31.3,26.4,33.9,28.0,22.1,94,87,80,29.75,29.41,6,2,14,0.00
2014-1-12,40.1,32.4,25.0,31.5,26.8,21.4,91,80,60,29.78,29.53,6,2,16,0.00
2014-1-13,41.5,33.6,24.7,32.0,27.5,19.2,86,78,67,29.72,29.50,5,1,11,0.00
2014-1-14,32.9,25.3,15.4,30.6,21.1,9.5,91,84,77,29.94,29.51,10,3,21,0.06
2014-1-15,17.8,12.0,10.0,12.4,4.9,1.3,79,73,63,30.11,29.72,4,1,12,0.00
2014-1-16,34.1,21.4,11.1,30.3,14.9,1.3,89,76,60,29.73,29.41,7,2,16,0.05
2014-1-17,18.8,11.9,5.0,11.0,4.4,-3.0,77,71,64,30.00,29.73,4,1,11,0.00
2014-1-18,20.5,9.5,1.8,13.9,3.8,-4.3,83,77,72,29.95,29.77,1,0,5,0.05
2014-1-19,33.4,23.1,7.0,27.5,16.9,2.9,85,77,66,29.86,29.51,6,2,13,0.00
2014-1-20,33.5,21.3,6.1,27.3,14.9,-4.8,81,76,60,30.24,29.61,5,1,9,0.00
2014-1-21,6.1,0.3,-5.0,-4.8,-10.2,-13.8,69,61,47,30.41,30.20,3,0,11,0.00
2014-1-22,12.6,3.5,-3.5,4.5,-6.0,-99.9,75,65,54,30.28,29.92,8,2,18,0.00
2014-1-23,5.8,-2.2,-9.8,-8.1,-13.3,-18.9,64,59,50,30.64,30.28,7,2,16,0.00
2014-1-24,29.3,12.4,-10.0,26.7,3.2,-18.7,90,67,55,30.53,29.40,13,5,29,0.01
2014-1-25,30.6,13.7,3.0,28.0,-1.2,-9.5,90,52,37,29.88,29.40,11,4,28,0.00
2014-1-26,26.1,11.9,1.3,17.3,4.5,-8.9,81,72,49,29.89,29.40,13,3,24,0.13
2014-1-27,1.1,-6.5,-14.3,-8.9,-18.5,-24.2,67,55,42,30.48,29.89,9,3,20,0.00
2014-1-28,1.3,-7.4,-16.6,-12.3,-17.7,-24.9,67,60,48,30.47,30.23,4,1,12,0.00
2014-1-29,21.3,8.6,-5.2,7.8,-3.4,-13.7,67,58,44,30.23,29.86,5,1,17,0.00
2014-1-30,29.3,24.0,15.4,25.4,15.5,7.6,86,70,56,29.96,29.56,7,2,18,0.08
2014-1-31,15.4,8.8,4.8,8.7,0.4,-2.5,77,68,56,30.19,29.96,3,0,6,0.00
2014-2-1,19.5,14.5,6.9,14.8,8.4,0.2,85,77,70,30.15,29.97,4,0,7,0.11
2014-2-2,15.2,7.4,-5.2,7.4,-0.9,-11.6,81,69,49,30.37,30.14,4,0,7,0.00
2014-2-3,15.1,4.0,-9.3,1.1,-5.4,-15.6,78,65,48,30.42,30.34,5,0,11,0.00
2014-2-4,18.4,11.0,-0.2,9.7,2.9,-6.0,78,70,59,30.47,30.23,2,0,8,0.00
2014-2-5,19.1,13.6,1.5,11.6,6.3,-5.3,83,73,60,30.48,30.19,4,2,17,0.02
2014-2-6,4.8,-1.4,-8.6,-5.3,-10.0,-14.9,75,67,55,30.47,30.38,4,1,11,0.00
2014-2-7,11.7,2.6,-5.4,-2.2,-7.3,-12.1,74,63,49,30.38,30.31,5,2,12,0.00
2014-2-8,13.6,3.4,-7.9,7.7,-2.3,-14.3,81,77,72,30.33,30.17,2,0,3,0.03
2014-2-9,17.2,7.2,-1.6,6.4,-1.5,-12.3,83,68,54,30.36,30.15,5,1,12,0.00
2014-2-10,9.5,-0.3,-8.9,-5.7,-11.6,-99.9,71,59,46,30.53,30.35,3,0,7,0.00
2014-2-11,10.0,-0.9,-12.5,-5.2,-11.2,-19.2,74,62,45,30.57,30.36,2,0,6,0.00
2014-2-12,18.3,10.6,-1.0,11.7,3.1,-10.6,80,71,62,30.36,29.99,1,0,5,0.02
2014-2-13,29.7,21.2,15.2,24.0,13.5,6.9,83,72,64,29.99,29.48,6,2,18,0.04
2014-2-14,22.2,13.3,3.7,9.7,4.2,-4.4,78,67,55,30.02,29.63,3,1,17,0.00
2014-2-15,17.5,8.2,-3.9,11.7,0.6,-9.8,85,71,54,30.12,29.97,2,0,7,0.00
2014-2-16,23.6,16.3,11.2,12.5,9.1,4.0,86,74,56,30.30,29.97,2,0,7,0.00
2014-2-17,25.1,22.1,16.1,20.8,17.5,10.7,87,82,75,30.25,29.70,6,1,17,0.21
2014-2-18,42.2,30.7,13.8,29.6,23.0,9.3,90,74,58,29.90,29.58,5,1,12,0.00
2014-2-19,42.5,34.0,26.1,28.7,24.6,21.1,84,69,48,29.93,29.64,3,1,13,0.00
2014-2-20,40.8,33.9,31.6,39.2,31.1,26.3,94,89,78,29.86,29.05,12,3,24,0.30
2014-2-21,34.1,22.6,18.0,29.5,14.0,8.2,83,69,59,29.80,29.18,15,9,27,0.00
2014-2-22,27.2,18.0,9.9,12.5,7.6,2.5,73,64,49,30.10,29.80,5,2,11,0.00
2014-2-23,24.5,13.6,6.3,8.8,2.7,-2.3,73,62,47,30.25,30.10,6,2,14,0.00
2014-2-24,22.9,13.9,5.0,8.7,2.8,-3.3,71,61,48,30.30,30.22,6,1,17,0.00
2014-2-25,16.5,9.3,-0.2,4.4,-1.9,-10.7,79,61,42,30.28,30.17,6,2,14,0.00
2014-2-26,14.0,3.8,-7.5,7.7,-7.7,-15.6,77,59,42,30.29,29.66,11,3,27,0.00
2014-2-27,11.9,1.7,-6.8,3.7,-14.5,-19.2,73,47,29,30.24,29.70,10,2,22,0.00
2014-2-28,22.2,9.9,-8.4,16.8,0.1,-17.3,86,65,49,30.23,29.99,6,1,13,0.06
2014-3-1,20.2,11.5,4.7,16.5,3.5,-5.5,86,70,53,30.42,30.06,4,1,13,0.09
2014-3-2,7.2,1.8,-5.6,-6.0,-14.3,-20.2,61,47,32,30.54,30.42,5,1,13,0.00
2014-3-3,16.1,5.2,-9.1,0.0,-9.7,-19.4,64,50,34,30.58,30.36,3,0,8,0.00
2014-3-4,21.6,15.0,8.3,11.4,6.3,-0.9,84,69,51,30.36,30.20,2,0,5,0.14
2014-3-5,22.1,14.5,1.5,11.4,7.0,-4.0,84,72,53,30.51,30.27,3,0,9,0.19
2014-3-6,26.4,13.4,-2.0,14.1,5.9,-7.4,84,72,56,30.48,30.05,3,0,8,0.00
2014-3-7,42.5,30.6,15.9,30.9,22.5,10.0,85,73,52,30.04,29.84,6,1,11,0.00
2014-3-8,34.0,27.9,16.7,27.6,19.7,11.3,84,72,55,30.26,30.02,5,1,10,0.00
2014-3-9,37.8,28.0,15.4,31.6,20.3,9.8,83,73,58,30.23,29.73,9,3,21,0.00
2014-3-10,51.1,42.8,37.5,35.3,32.9,30.9,78,69,53,29.73,29.59,5,2,16,0.00
2014-3-11,44.3,37.9,33.5,35.5,32.4,30.3,93,81,60,29.81,29.64,2,0,10,0.00
2014-3-12,33.8,25.6,13.3,31.7,17.5,6.2,92,71,54,30.13,29.75,3,1,10,0.00
2014-3-13,36.5,25.6,11.2,32.5,18.7,5.1,89,75,64,30.12,29.73,5,1,12,0.00
2014-3-14,48.2,40.1,35.0,33.4,30.4,27.2,86,69,53,29.81,29.51,10,4,21,0.00
2014-3-15,36.5,31.2,24.2,27.1,20.4,17.1,79,65,49,30.30,29.81,5,1,12,0.00
2014-3-16,26.6,19.3,11.1,20.5,8.7,2.5,78,63,49,30.43,30.19,3,1,13,0.00
2014-3-17,36.0,23.7,10.5,23.1,11.9,-99.9,83,64,34,30.19,29.74,6,2,12,0.00
2014-3-18,44.2,35.0,25.0,32.7,28.3,21.2,88,77,59,29.83,29.66,7,1,12,0.01
2014-3-19,37.3,34.2,32.1,35.0,30.3,21.7,99,86,65,29.97,29.56,8,3,18,0.08
2014-3-20,44.9,34.0,25.8,28.7,23.9,21.3,87,68,42,30.04,29.96,4,1,10,0.00
2014-3-21,50.1,37.0,23.3,40.4,29.2,19.6,86,74,58,30.00,29.68,9,2,22,0.00
2014-3-22,37.6,31.1,19.9,29.0,18.4,5.5,76,60,38,30.40,29.87,9,4,22,0.00
2014-3-23,30.3,21.0,13.8,10.4,5.5,2.1,63,51,34,30.49,30.37,4,1,13,0.00
2014-3-24,37.3,25.7,16.1,24.2,13.0,-99.9,86,60,38,30.40,30.05,6,2,14,0.01
2014-3-25,27.6,21.2,14.4,21.8,7.4,1.4,83,56,35,30.26,30.03,9,3,19,0.00
2014-3-26,37.6,25.6,11.9,22.0,12.5,4.7,77,59,39,30.30,29.87,8,2,14,0.00
2014-3-27,45.7,38.6,33.7,43.5,34.5,21.1,93,86,52,29.87,29.36,5,2,13,0.18
2014-3-28,43.9,35.3,30.9,42.0,29.9,26.1,93,81,68,30.19,29.38,8,2,17,0.07
2014-3-29,47.0,36.0,27.2,29.2,25.7,20.5,88,68,45,30.26,30.19,4,0,8,0.00
2014-3-30,57.2,41.2,26.1,38.4,28.7,18.0,78,62,44,30.24,29.95,5,1,16,0.00
2014-3-31,65.5,52.9,42.1,42.4,38.1,33.1,78,58,41,29.96,29.55,10,4,20,0.00
2014-4-1,53.5,35.7,25.7,41.8,24.0,17.3,75,63,44,30.09,29.55,11,6,22,0.00
2014-4-2,52.2,37.2,23.8,28.3,23.6,19.5,87,61,35,30.19,30.06,3,0,12,0.00
2014-4-3,38.2,36.4,33.8,33.4,28.0,21.8,91,72,57,30.06,29.63,5,2,13,0.03
2014-4-4,38.8,35.4,34.3,34.1,30.4,24.8,93,82,67,30.00,29.44,12,4,25,0.04
2014-4-5,53.8,39.1,25.0,30.5,24.5,20.3,88,59,30,30.18,30.00,4,1,14,0.00
2014-4-6,59.9,44.7,29.7,37.0,31.1,24.3,82,61,40,30.11,29.89,5,1,12,0.00
2014-4-7,62.7,48.6,37.5,44.2,37.5,31.4,85,67,40,29.89,29.62,4,1,11,0.02
2014-4-8,60.1,47.7,36.8,41.0,34.2,26.5,89,62,32,29.92,29.63,7,2,12,0.00
2014-4-9,63.4,48.7,28.8,32.7,28.4,23.4,83,49,24,30.00,29.70,6,1,17,0.00
2014-4-10,65.0,54.0,44.9,38.3,27.6,16.6,62,39,18,29.92,29.57,7,2,15,0.00
2014-4-11,69.6,52.3,35.8,38.5,28.3,18.9,69,42,21,30.00,29.87,9,1,17,0.00
2014-4-12,63.5,50.8,42.9,53.1,40.5,29.4,89,68,56,29.98,29.62,9,1,18,0.01
2014-4-13,51.7,48.3,41.9,51.0,46.9,40.0,100,95,89,29.76,29.46,6,1,12,1.72
2014-4-14,41.9,33.1,27.3,40.0,27.9,21.3,93,81,67,30.04,29.44,9,4,19,0.33
2014-4-15,38.9,28.9,19.4,23.0,16.7,11.0,85,62,37,30.19,30.03,6,1,11,0.01
2014-4-16,53.1,39.8,24.8,32.0,25.3,17.5,77,58,41,30.23,30.01,12,4,24,0.00
2014-4-17,56.3,46.3,38.0,40.5,33.6,27.3,78,62,49,30.27,29.97,9,2,19,0.00
2014-4-18,56.2,42.5,28.8,35.3,29.3,22.5,89,62,28,30.36,30.27,4,0,10,0.00
2014-4-19,67.3,49.2,31.2,38.8,31.8,24.5,77,54,30,30.36,30.14,7,1,14,0.00
2014-4-20,79.2,62.9,51.4,50.0,42.9,36.9,62,49,29,30.14,29.91,5,1,13,0.00
2014-4-21,68.3,61.4,54.5,60.2,51.1,35.5,89,69,47,29.91,29.75,7,1,18,0.14
2014-4-22,59.5,49.3,39.3,36.2,29.6,23.6,66,48,28,30.08,29.83,8,3,18,0.00
2014-4-23,54.8,41.4,31.3,34.8,28.2,24.5,85,62,34,30.16,30.01,3,0,8,0.10
2014-4-24,56.6,45.4,34.9,47.9,40.0,30.8,92,82,58,30.06,29.63,6,1,14,0.44
2014-4-25,68.3,53.9,41.2,48.4,39.7,31.0,92,63,27,29.81,29.64,10,2,21,0.07
2014-4-26,56.7,46.5,39.1,38.8,33.0,27.7,72,60,46,30.01,29.78,3,1,10,0.00
2014-4-27,52.3,44.5,40.5,40.6,36.0,29.4,88,73,48,30.03,29.78,8,3,20,0.27
2014-4-28,48.9,44.0,40.5,41.5,39.0,35.7,89,83,68,29.80,29.56,7,4,18,0.73
2014-4-29,50.2,45.5,41.2,48.0,43.1,38.9,93,91,86,29.59,29.45,3,0,8,0.29
2014-4-30,47.3,44.5,41.6,45.1,40.0,35.9,93,84,74,29.72,29.59,4,1,11,0.02
2014-5-1,49.6,43.5,38.5,43.7,39.2,35.6,92,85,73,29.78,29.61,5,1,9,0.03
2014-5-2,52.5,47.5,43.6,44.9,41.3,39.0,88,79,64,29.78,29.60,5,1,13,0.10
2014-5-3,65.0,53.0,41.8,44.3,38.6,32.6,92,62,31,29.85,29.60,11,4,19,0.01
2014-5-4,60.2,50.5,42.9,34.4,29.4,21.7,66,46,25,30.05,29.85,5,1,10,0.00
2014-5-5,60.1,49.3,41.2,38.0,31.9,26.3,71,53,31,30.02,29.92,5,1,12,0.00
2014-5-6,64.3,51.3,37.9,43.3,36.2,30.7,77,58,39,30.01,29.84,5,1,13,0.00
2014-5-7,65.2,55.4,48.2,48.7,42.9,33.6,82,63,52,29.85,29.73,4,1,13,0.00
2014-5-8,83.6,69.2,49.9,64.6,57.3,46.1,92,68,41,29.77,29.63,5,1,13,0.00
2014-5-9,69.3,60.6,49.1,60.6,50.8,41.3,88,71,57,29.81,29.55,9,3,16,0.02
2014-5-10,74.4,58.9,41.5,47.9,42.9,37.3,91,59,32,29.90,29.81,3,0,8,0.00
2014-5-11,77.6,65.7,55.4,63.9,54.7,42.0,89,69,54,29.87,29.79,3,0,10,0.15
2014-5-12,77.2,68.0,62.7,69.8,64.0,59.0,92,87,75,29.83,29.70,6,1,19,1.04
2014-5-13,63.9,54.8,47.0,61.2,48.8,39.6,93,81,61,30.13,29.73,5,1,12,0.02
2014-5-14,56.9,50.0,40.6,42.0,37.7,33.7,86,64,45,30.19,30.01,3,0,12,0.00
2014-5-15,56.6,47.6,39.5,42.5,36.1,30.7,89,66,44,30.02,29.95,4,1,11,0.12
2014-5-16,51.9,44.8,39.1,35.2,31.2,-99.9,83,61,39,30.05,30.00,4,0,7,0.00
2014-5-17,63.5,50.6,37.2,38.6,31.2,25.9,78,50,28,30.11,30.03,5,1,12,0.00
2014-5-18,72.5,58.8,45.8,46.2,36.3,31.9,62,45,24,30.14,30.08,4,1,11,0.00
2014-5-19,64.2,56.4,47.9,49.2,43.5,39.1,85,63,46,30.14,29.83,10,3,21,0.10
2014-5-20,85.7,71.5,58.3,68.4,58.8,45.7,87,66,42,29.85,29.73,5,0,11,0.01
2014-5-21,84.7,71.2,58.7,65.0,53.6,39.4,93,59,26,29.96,29.73,5,1,12,0.01
2014-5-22,73.0,61.7,50.4,53.2,46.3,42.0,81,59,35,30.10,29.96,3,0,12,0.00
2014-5-23,72.3,60.2,47.6,51.3,45.6,41.5,89,61,39,30.18,30.09,1,0,7,0.00
2014-5-24,76.0,61.0,44.6,53.5,43.7,39.1,89,56,30,30.20,30.07,4,0,8,0.00
2014-5-25,83.2,67.9,47.9,55.9,48.3,42.7,89,54,26,30.10,29.93,2,0,10,0.00
2014-5-26,82.4,71.5,66.3,70.8,63.5,54.1,91,77,56,29.96,29.84,5,0,9,0.79
2014-5-27,84.7,71.5,61.8,70.3,64.9,59.1,100,81,47,29.92,29.79,2,0,8,0.58
2014-5-28,74.6,63.4,54.5,58.9,53.2,47.9,92,71,50,30.04,29.87,1,0,6,0.00
2014-5-29,79.8,65.8,52.9,64.6,54.4,47.9,86,68,41,30.10,30.02,2,0,10,0.00
2014-5-30,83.0,67.3,52.0,62.0,54.3,48.8,92,66,36,30.15,30.07,2,0,10,0.00
2014-5-31,86.5,71.8,55.1,59.0,53.2,47.5,88,57,27,30.13,29.95,4,0,12,0.00
2014-6-1,87.4,75.3,68.6,70.1,62.2,53.9,92,65,47,29.98,29.74,6,1,14,0.72
2014-6-2,80.3,72.6,66.0,69.4,65.6,59.2,100,80,59,29.78,29.66,4,1,14,0.51
2014-6-3,77.0,68.1,59.5,59.2,54.2,49.0,81,62,41,29.93,29.75,5,0,16,0.00
2014-6-4,70.3,63.9,57.0,60.3,57.1,52.9,90,79,68,29.90,29.73,3,0,7,0.02
2014-6-5,76.8,65.1,52.2,54.7,49.2,41.3,93,61,33,29.96,29.86,2,0,8,0.00
2014-6-6,81.6,68.5,54.4,58.1,51.8,45.3,79,57,36,29.96,29.88,2,0,9,0.00
2014-6-7,79.6,66.9,56.0,62.8,55.0,46.2,90,67,44,29.94,29.82,5,0,8,0.07
2014-6-8,72.5,63.5,56.5,58.6,54.2,44.0,91,73,51,30.03,29.86,1,0,7,0.00
2014-6-9,77.7,63.8,48.8,61.7,51.1,42.5,82,64,51,30.03,29.88,1,0,6,0.00
2014-6-10,67.6,62.8,56.9,58.2,52.0,44.7,78,68,56,29.92,29.78,0,0,7,0.01
2014-6-11,73.0,63.4,58.3,61.8,56.8,53.3,90,80,65,29.78,29.69,2,0,13,0.03
2014-6-12,76.1,64.4,53.2,63.3,52.8,43.6,93,68,46,29.85,29.68,3,0,13,0.00
2014-6-13,73.9,61.2,50.4,46.1,41.4,35.0,76,51,26,29.98,29.85,8,1,18,0.00
2014-6-14,77.6,65.4,50.8,52.1,46.3,41.4,83,54,28,30.03,29.85,5,1,14,0.00
2014-6-15,84.1,71.7,62.1,66.1,54.4,-99.9,70,56,45,29.87,29.67,8,2,18,0.00
2014-6-16,86.5,75.2,61.8,69.9,60.7,55.3,87,63,38,29.97,29.71,5,0,12,0.03
2014-6-17,84.5,74.1,65.0,70.2,65.8,61.0,100,77,47,29.83,29.63,7,0,16,0.81
2014-6-18,76.8,71.1,63.1,70.5,64.6,59.8,92,80,70,29.97,29.75,7,0,11,0.56
2014-6-19,73.5,68.2,64.0,67.2,64.3,60.9,100,88,78,30.06,29.93,4,0,11,0.68
2014-6-20,82.4,72.5,66.6,70.9,66.7,61.8,100,83,54,29.95,29.86,2,0,11,1.11
2014-6-21,77.6,69.5,64.0,70.2,64.7,61.1,100,85,60,29.91,29.80,2,0,8,0.03
2014-6-22,81.2,71.2,60.5,71.3,64.9,57.6,93,81,66,29.86,29.75,1,0,5,0.01
2014-6-23,79.4,71.8,67.1,69.1,65.9,63.9,90,82,64,29.80,29.74,1,0,7,0.05
2014-6-24,84.0,73.8,64.3,69.3,63.3,58.3,92,72,43,29.85,29.78,2,0,10,0.00
2014-6-25,78.1,69.2,65.2,68.1,63.5,61.1,90,82,69,29.99,29.84,1,0,6,0.02
2014-6-26,79.0,69.3,60.2,66.6,62.0,56.6,90,78,59,30.04,29.92,2,0,7,0.00
2014-6-27,85.5,74.9,64.2,70.8,64.8,58.9,88,72,55,29.96,29.83,3,1,13,0.00
2014-6-28,84.5,76.1,68.8,72.7,68.6,64.4,87,78,63,29.92,29.77,5,1,17,0.00
2014-6-29,82.2,74.3,65.3,71.6,67.1,62.3,92,79,64,29.87,29.73,4,1,14,0.99
2014-6-30,84.5,72.3,64.8,75.8,67.7,62.6,93,86,70,29.78,29.55,3,0,8,1.07
2014-7-1,79.8,68.5,61.8,65.8,61.8,58.5,94,80,56,29.72,29.56,4,1,18,0.24
2014-7-2,67.8,60.7,55.7,58.8,55.0,52.2,92,82,66,30.00,29.72,4,0,11,0.00
2014-7-3,75.3,63.7,51.7,53.9,49.9,43.5,90,64,36,30.15,30.00,3,0,10,0.00
2014-7-4,78.6,66.9,55.1,56.9,51.7,46.3,83,61,34,30.26,30.15,1,0,5,0.00
2014-7-5,74.6,65.8,56.2,61.2,55.7,-99.9,86,72,56,30.19,29.96,4,0,11,0.00
2014-7-6,81.4,72.4,62.4,73.2,66.4,57.8,89,82,74,29.96,29.62,2,0,16,0.05
2014-7-7,84.1,74.9,66.1,69.1,64.7,59.1,92,72,46,29.70,29.56,2,0,11,0.01
2014-7-8,79.4,69.9,62.4,64.9,60.0,54.0,93,73,49,29.78,29.55,5,1,12,0.98
2014-7-9,76.0,65.9,57.6,58.7,54.1,48.8,89,68,40,30.02,29.78,4,1,13,0.00
2014-7-10,79.6,67.3,53.2,62.4,56.0,49.4,92,69,48,30.13,30.02,1,0,7,0.00
2014-7-11,75.3,68.7,59.5,61.4,58.0,54.6,87,70,54,30.14,30.03,5,0,10,0.00
2014-7-12,76.5,71.3,66.6,71.8,66.3,61.0,91,84,77,30.03,29.78,3,0,12,0.38
2014-7-13,83.0,71.1,61.2,69.6,60.7,51.0,93,72,46,29.88,29.81,4,0,11,0.01
2014-7-14,77.4,64.8,56.3,58.4,52.2,47.1,86,65,39,29.85,29.78,6,1,12,0.00
2014-7-15,67.6,59.1,53.8,58.5,51.9,49.0,86,77,62,29.95,29.83,5,1,14,0.02
2014-7-16,72.7,61.2,50.7,58.3,50.7,46.5,92,70,46,30.00,29.95,2,0,7,0.00
2014-7-17,75.6,63.4,49.4,55.7,50.2,45.1,92,65,37,30.06,30.00,1,0,6,0.00
2014-7-18,79.8,66.2,54.7,62.1,55.7,50.7,92,71,45,30.12,30.02,2,0,10,0.00
2014-7-19,78.6,68.4,58.3,64.2,58.1,54.1,89,71,49,30.04,29.96,1,0,13,0.00
2014-7-20,80.3,67.9,58.4,65.8,59.6,54.2,89,76,56,30.00,29.93,1,0,7,0.00
2014-7-21,85.5,74.6,63.2,69.3,64.8,59.3,88,73,54,30.01,29.93,3,1,12,0.00
2014-7-22,91.0,79.2,70.9,79.2,70.1,63.6,85,74,59,29.97,29.83,3,1,11,0.00
2014-7-23,79.0,69.2,59.8,64.0,57.1,50.8,85,67,46,30.13,29.97,2,0,9,0.00
2014-7-24,78.5,65.4,52.3,58.6,53.2,47.9,90,67,41,30.15,29.95,1,0,7,0.00
2014-7-25,70.4,64.8,59.5,61.9,57.3,50.2,84,77,70,30.00,29.83,4,0,10,0.00
2014-7-26,80.5,71.7,64.2,70.9,65.2,59.4,88,80,71,29.85,29.73,2,0,7,0.00
2014-7-27,79.8,70.8,62.6,67.9,62.2,54.9,89,76,49,29.93,29.68,7,2,20,0.12
2014-7-28,72.8,63.7,54.8,55.3,51.8,48.2,85,67,47,30.08,29.93,4,1,12,0.01
2014-7-29,78.5,66.1,57.3,59.8,54.9,51.0,88,69,44,30.03,29.94,7,0,12,0.07
2014-7-30,76.8,65.5,56.5,62.9,55.8,50.2,92,73,41,30.01,29.95,2,0,7,0.00
2014-7-31,81.8,69.5,59.0,64.5,57.4,51.7,88,67,42,29.98,29.95,4,0,11,0.00
2014-8-1,83.8,68.9,58.3,63.2,57.8,51.3,91,71,41,30.07,29.97,3,0,6,0.08
2014-8-2,83.0,69.0,55.9,66.5,59.6,52.7,93,73,49,30.12,30.03,1,0,6,0.00
2014-8-3,85.5,72.6,61.3,67.8,61.8,57.6,92,71,43,30.09,30.00,2,0,8,0.00
2014-8-4,84.3,69.1,62.4,68.2,61.9,58.2,92,79,49,30.04,29.96,2,0,11,0.23
2014-8-5,76.7,68.3,63.1,66.0,63.1,60.3,93,84,66,30.04,29.97,3,0,6,0.01
2014-8-6,78.5,68.3,57.2,61.7,57.5,51.7,92,70,45,30.05,29.99,1,0,6,0.00
2014-8-7,81.1,68.4,55.9,62.8,56.2,52.1,90,67,45,30.06,29.99,2,0,7,0.00
2014-8-8,81.6,68.6,56.2,63.4,56.2,51.8,92,67,41,30.05,30.01,2,0,8,0.00
2014-8-9,81.4,69.1,59.9,63.4,56.9,52.7,92,67,41,30.08,30.01,2,0,6,0.00
2014-8-10,82.8,69.6,58.7,64.1,58.9,52.4,88,70,45,30.05,29.93,2,0,7,0.00
2014-8-11,83.0,70.4,62.1,68.4,60.5,56.4,87,72,49,29.93,29.74,6,1,14,0.00
2014-8-12,75.6,65.7,59.0,58.9,53.1,49.8,82,65,44,29.95,29.78,7,2,16,0.00
2014-8-13,83.4,68.3,56.6,64.0,55.5,49.3,83,65,44,30.00,29.93,3,0,12,0.00
2014-8-14,74.0,62.7,52.3,54.3,50.3,44.0,90,66,36,30.10,30.00,2,0,7,0.00
2014-8-15,80.7,65.6,49.5,61.0,53.8,44.2,88,67,47,30.04,29.88,2,0,7,0.00
2014-8-16,84.1,72.1,60.5,68.7,63.3,57.2,92,75,55,29.88,29.80,1,0,6,0.00
2014-8-17,78.3,69.5,62.6,65.9,62.2,58.7,91,78,60,29.97,29.85,2,0,7,0.00
2014-8-18,84.7,70.8,58.3,68.8,62.7,55.1,92,77,56,29.91,29.66,3,0,9,0.00
2014-8-19,83.8,73.6,64.7,70.2,64.3,60.3,93,74,52,29.72,29.59,3,0,11,0.16
2014-8-20,86.3,74.0,62.6,67.8,63.6,59.0,92,72,47,29.86,29.72,2,0,10,0.00
2014-8-21,77.2,71.4,67.1,72.6,67.9,64.1,93,89,83,29.92,29.82,4,0,13,0.84
2014-8-22,83.0,74.6,71.1,75.0,70.9,68.0,93,88,76,29.90,29.81,0,0,2,0.00
2014-8-23,76.3,74.0,70.8,73.8,71.1,67.8,93,91,88,29.94,29.84,1,0,3,0.24
2014-8-24,86.7,76.8,69.3,76.1,71.4,67.2,93,84,71,29.94,29.87,2,0,9,0.00
2014-8-25,77.4,72.4,67.9,74.9,69.2,64.5,93,90,80,30.02,29.86,6,0,11,1.70
2014-8-26,77.6,69.8,63.7,66.7,61.9,57.4,92,77,55,30.13,29.94,2,0,7,0.02
2014-8-27,76.1,67.8,59.5,61.9,58.8,55.0,89,74,52,30.13,30.05,1,0,7,0.00
2014-8-28,75.3,65.9,58.1,63.1,58.3,54.4,92,77,62,30.10,29.95,2,0,8,0.00
2014-8-29,84.3,73.9,63.5,72.7,66.4,58.9,93,79,63,29.95,29.74,3,1,11,0.00
2014-8-30,80.7,72.7,67.3,72.3,66.5,62.6,91,81,63,29.84,29.71,3,0,8,0.05
2014-8-31,84.5,73.5,62.1,70.4,65.4,58.8,93,77,54,29.87,29.73,2,0,10,0.00
2014-9-1,80.9,71.7,66.0,69.0,64.0,58.6,88,77,61,29.79,29.59,3,0,11,0.01
2014-9-2,79.0,68.1,57.5,62.8,58.1,53.8,92,72,49,29.91,29.79,2,0,8,0.00
2014-9-3,81.8,69.9,56.2,65.6,60.2,53.0,92,73,51,29.97,29.81,4,1,11,0.00
2014-9-4,82.8,74.2,66.0,72.8,67.9,63.6,93,81,63,29.91,29.75,6,1,15,2.76
2014-9-5,77.0,71.0,59.5,72.7,62.8,52.6,88,76,53,30.07,29.78,5,1,12,0.00
2014-9-6,74.6,62.4,51.0,57.7,51.8,47.3,90,70,45,30.16,30.07,2,0,11,0.00
2014-9-7,78.6,63.4,51.4,60.3,53.0,47.3,92,71,38,30.16,30.06,1,0,3,0.00
2014-9-8,74.2,63.5,53.5,57.6,54.0,50.3,92,73,49,30.08,29.90,3,0,11,0.00
2014-9-9,78.3,68.0,57.8,65.2,59.9,53.3,90,76,56,29.92,29.75,3,0,10,0.03
2014-9-10,76.5,64.3,50.5,72.0,60.2,44.6,94,87,79,29.89,29.42,7,2,19,0.61
2014-9-11,53.3,49.1,45.7,44.6,42.2,39.6,84,77,69,30.29,29.89,4,1,14,0.00
2014-9-12,47.1,44.5,38.8,43.1,41.1,35.8,90,88,83,30.37,30.28,1,0,5,0.13
2014-9-13,56.9,46.4,37.9,43.7,38.4,35.5,92,75,47,30.36,30.27,2,0,8,0.02
2014-9-14,65.8,52.6,39.1,50.2,43.1,35.1,90,72,49,30.29,30.10,3,0,9,0.00
2014-9-15,56.2,52.1,45.2,51.5,47.1,41.0,91,83,76,30.17,30.08,1,0,6,0.05
2014-9-16,64.8,51.5,38.8,48.1,42.1,35.8,92,73,46,30.20,30.05,1,0,7,0.01
2014-9-17,68.8,54.8,41.5,52.6,45.3,38.0,93,73,48,30.04,29.94,1,0,7,0.00
2014-9-18,65.6,54.1,47.0,55.0,49.2,43.0,93,84,64,30.16,30.00,1,0,6,0.00
2014-9-19,73.2,62.2,51.0,55.5,52.0,48.2,94,72,45,30.13,29.81,4,1,16,0.00
2014-9-20,76.7,68.0,62.0,66.1,60.9,54.0,92,78,64,29.84,29.65,8,1,28,0.25
2014-9-21,65.3,57.3,49.9,58.5,49.4,42.3,90,76,53,30.14,29.67,6,1,14,0.01
2014-9-22,68.4,52.1,40.1,51.5,42.9,36.0,91,73,48,30.26,30.14,2,0,8,0.00
2014-9-23,72.8,58.1,46.2,56.0,48.6,43.4,93,73,42,30.29,30.19,1,0,7,0.00
2014-9-24,72.5,60.6,50.7,55.5,51.2,46.4,89,73,45,30.30,30.20,3,0,10,0.00
2014-9-25,76.7,62.3,51.4,59.6,50.9,42.9,92,69,34,30.25,30.16,2,0,6,0.00
2014-9-26,78.5,62.7,48.3,59.6,52.2,44.6,93,71,40,30.24,30.15,2,0,7,0.00
2014-9-27,78.8,65.4,52.2,62.0,54.9,48.8,93,71,46,30.22,30.10,1,0,6,0.00
2014-9-28,79.2,65.0,52.9,62.6,55.2,49.7,93,73,44,30.14,30.00,1,0,5,0.00
2014-9-29,80.9,63.2,50.5,63.3,54.6,46.8,93,76,44,30.01,29.89,2,0,11,0.00
2014-9-30,50.5,46.8,42.8,47.1,41.9,38.7,92,83,76,30.07,29.99,1,0,3,0.00
2014-10-1,68.8,58.4,47.9,56.3,50.6,45.4,91,76,60,30.00,29.81,5,1,12,0.00
2014-10-2,69.4,63.5,58.3,65.7,59.5,54.5,93,87,77,29.82,29.54,2,0,8,0.10
2014-10-3,63.1,50.6,40.6,59.9,43.7,29.5,92,78,59,29.76,29.50,5,2,18,0.72
2014-10-4,48.2,41.2,35.9,40.2,33.7,28.3,90,75,62,29.72,29.62,6,1,16,0.03
2014-10-5,53.5,43.4,33.5,36.9,32.4,29.2,86,67,42,29.70,29.57,4,0,8,0.00
2014-10-6,56.6,49.2,44.9,42.2,37.2,30.6,87,65,41,29.58,29.52,3,0,18,0.00
2014-10-7,64.2,52.6,45.5,47.6,41.1,36.6,85,66,45,29.81,29.53,4,0,11,0.00
2014-10-8,64.2,51.0,39.9,41.0,36.9,33.6,83,61,35,30.00,29.81,6,1,18,0.00
2014-10-9,57.2,46.8,37.5,37.8,33.1,29.5,80,61,38,30.14,30.00,3,0,10,0.00
2014-10-10,56.2,44.7,34.7,38.6,33.2,28.3,89,67,36,30.22,30.13,2,0,8,0.00
2014-10-11,58.9,41.6,31.5,38.9,31.3,28.1,92,70,37,30.25,30.10,2,0,7,0.00
2014-10-12,61.2,49.6,37.9,47.6,38.8,31.1,91,68,43,30.10,29.82,6,1,16,0.01
2014-10-13,59.5,55.4,50.1,55.9,53.0,47.6,94,92,84,29.83,29.44,1,0,6,1.18
2014-10-14,61.2,54.6,49.8,59.8,52.8,46.7,95,94,89,29.69,29.41,3,1,13,0.14
2014-10-15,49.9,49.6,49.1,47.4,46.4,46.1,92,89,88,29.84,29.68,2,0,13,0.06
2014-10-16,63.9,54.1,48.6,53.5,48.3,46.4,93,82,58,29.83,29.53,1,0,10,0.00
2014-10-17,58.9,51.3,45.8,48.7,45.3,39.3,89,80,68,29.90,29.51,7,2,20,0.01
2014-10-18,51.0,44.8,34.9,41.6,37.0,30.0,85,74,54,30.19,29.90,4,1,13,0.00
2014-10-19,56.3,45.3,32.8,43.6,37.9,28.3,92,76,60,30.17,29.78,5,1,16,0.00
2014-10-20,61.5,52.4,45.7,45.3,42.5,39.1,88,70,52,30.00,29.75,6,1,18,0.00
2014-10-21,49.6,44.0,33.4,40.8,36.6,28.6,83,75,65,30.28,29.99,1,0,6,0.00
2014-10-22,58.4,42.5,29.0,42.2,33.5,25.7,93,73,44,30.37,30.19,4,0,11,0.00
2014-10-23,53.5,46.3,36.0,48.9,41.5,31.3,92,84,66,30.19,30.00,5,1,12,0.09
2014-10-24,61.2,53.2,48.9,52.2,48.9,47.0,94,86,69,30.02,29.86,2,0,10,0.00
2014-10-25,68.3,57.3,46.2,54.4,40.4,25.6,93,59,23,29.96,29.84,8,2,20,0.01
2014-10-26,63.4,50.8,35.9,34.0,29.4,23.4,78,46,23,30.02,29.76,2,0,7,0.00
2014-10-27,74.9,63.0,50.7,60.2,50.8,33.1,81,65,47,29.76,29.46,5,2,17,0.00
2014-10-28,64.8,50.8,45.1,57.0,39.4,32.5,80,65,52,29.92,29.52,8,3,24,0.00
2014-10-29,50.1,42.6,33.1,36.1,31.5,27.6,80,65,52,30.12,29.91,6,2,21,0.00
2014-10-30,50.7,41.4,32.2,38.7,34.0,27.6,90,76,57,30.12,30.04,6,0,12,0.00
2014-10-31,43.9,35.4,29.3,34.0,22.4,17.4,85,60,44,30.45,30.05,9,3,28,0.00
2014-11-1,43.2,32.2,24.1,26.2,21.0,16.9,80,64,45,30.51,30.37,1,0,6,0.00
2014-11-2,52.3,40.1,27.6,30.3,24.2,20.3,82,57,31,30.37,30.08,5,1,16,0.00
2014-11-3,60.2,49.9,39.1,52.5,35.8,24.0,89,59,47,30.08,29.79,6,1,18,0.13
2014-11-4,57.8,48.8,40.3,55.2,41.0,33.3,92,75,57,30.02,29.74,8,4,19,0.01
2014-11-5,51.4,44.0,33.7,42.2,36.4,29.7,90,75,62,30.09,29.77,4,1,14,0.07
2014-11-6,45.2,39.1,35.5,41.6,31.7,24.6,87,75,63,30.24,29.75,6,3,19,0.00
2014-11-7,43.1,39.0,28.8,32.8,27.3,23.7,81,63,51,30.16,29.71,4,1,14,0.00
2014-11-8,46.4,39.9,34.6,37.2,28.6,22.6,86,65,44,29.95,29.68,9,3,22,0.03
2014-11-9,49.1,41.4,35.0,36.2,30.5,25.1,85,66,53,29.89,29.70,8,1,20,0.02
2014-11-10,58.6,46.6,36.2,43.9,39.6,32.4,92,78,57,29.81,29.43,8,1,17,0.00
2014-11-11,42.8,32.6,25.4,39.0,25.8,16.0,88,76,66,30.17,29.55,8,4,21,0.04
2014-11-12,30.6,23.9,20.0,18.2,14.2,12.4,75,66,56,30.31,30.17,8,2,16,0.00
2014-11-13,29.3,25.0,22.7,18.8,16.1,13.0,81,69,56,30.33,30.28,5,2,14,0.00
2014-11-14,28.5,21.8,13.5,16.5,12.1,6.7,78,67,47,30.39,30.31,3,0,11,0.00
2014-11-15,26.0,18.0,10.5,17.8,11.8,5.3,85,77,58,30.37,30.21,1,0,6,0.07
2014-11-16,27.5,20.5,8.1,23.0,15.7,1.5,88,82,72,30.20,29.90,5,1,13,0.00
2014-11-17,15.1,9.5,4.5,6.8,2.2,-0.8,82,72,59,29.98,29.85,5,1,20,0.00
2014-11-18,16.7,12.2,5.2,7.7,3.8,-1.0,77,69,59,30.10,29.96,5,1,16,0.00
2014-11-19,27.3,20.4,14.4,17.2,11.8,7.5,78,69,59,30.00,29.77,8,2,22,0.00
2014-11-20,23.5,16.1,7.7,10.9,3.9,-2.3,79,60,39,30.35,29.97,6,2,18,0.00
2014-11-21,30.4,18.5,2.6,20.6,4.9,-4.5,81,57,38,30.45,30.09,3,1,14,0.00
2014-11-22,48.6,40.0,30.1,47.0,37.3,19.7,94,90,66,30.09,29.73,4,1,12,0.05
2014-11-23,48.5,47.4,45.4,46.9,45.8,44.1,95,94,93,29.73,29.08,3,1,13,0.54
2014-11-24,45.4,32.2,19.1,44.1,30.3,16.4,95,92,89,29.81,29.03,8,4,18,0.25
2014-11-25,22.4,17.9,9.7,17.3,13.4,5.5,89,82,76,30.20,29.81,4,1,14,0.00
2014-11-26,23.3,16.0,7.9,19.2,12.2,3.8,89,85,82,30.26,30.15,1,0,6,0.00
2014-11-27,21.9,16.9,6.9,19.1,10.6,-0.1,89,76,60,30.44,30.26,5,1,16,0.00
2014-11-28,30.3,21.5,11.7,27.7,15.9,6.2,90,79,64,30.38,29.81,6,1,14,0.00
2014-11-29,43.1,36.3,26.1,41.2,32.9,23.3,93,88,78,29.81,29.50,5,1,12,0.00
2014-11-30,42.8,29.3,16.9,40.9,22.9,4.4,93,77,57,30.40,29.55,5,2,17,0.00
2014-12-1,16.9,11.6,5.6,5.8,-1.5,-5.4,70,55,47,30.72,30.40,5,1,20,0.00
2014-12-2,30.7,22.6,8.3,21.6,14.5,0.5,80,71,60,30.58,30.02,4,1,19,0.00
2014-12-3,33.7,25.1,19.4,19.1,13.7,7.9,81,63,42,30.37,30.01,8,2,17,0.00
2014-12-4,29.7,23.4,18.0,23.5,13.7,8.7,79,66,54,30.45,30.23,4,0,8,0.00
2014-12-5,35.3,32.5,29.7,30.9,28.5,23.2,91,85,76,30.28,30.16,2,0,6,0.00
2014-12-6,35.8,28.9,19.4,29.3,21.9,13.7,89,75,59,30.69,30.28,2,0,11,0.00
2014-12-7,34.1,27.2,18.4,25.3,19.0,13.2,89,72,50,30.66,30.22,6,2,14,0.00
2014-12-8,34.1,32.2,30.0,32.3,29.9,25.5,93,91,83,30.22,29.95,6,1,17,0.13
2014-12-9,34.0,31.2,28.4,29.1,26.8,23.6,92,84,77,30.42,30.13,5,1,16,0.00
2014-12-10,28.4,25.1,23.2,23.3,20.3,18.5,83,81,79,30.44,30.30,1,0,6,0.00
2014-12-11,30.7,24.5,21.1,23.3,19.8,17.3,88,82,72,30.30,30.23,3,1,8,0.00
2014-12-12,34.4,31.1,23.3,32.3,28.7,20.3,92,91,88,30.33,30.21,4,1,11,0.00
2014-12-13,42.2,35.1,32.4,40.9,33.2,30.3,95,93,92,30.20,30.04,4,1,8,0.00
2014-12-14,45.8,43.9,41.5,45.8,43.7,41.0,100,99,95,30.04,29.92,5,0,10,0.00
2014-12-15,44.9,43.7,41.8,44.9,43.7,41.8,100,100,100,29.92,29.63,5,1,14,0.12
2014-12-16,41.8,35.0,24.4,41.8,32.4,18.5,100,91,74,30.17,29.62,10,4,28,0.11
2014-12-17,25.0,22.8,17.8,18.5,15.5,11.5,78,73,68,30.33,30.16,7,2,16,0.00
2014-12-18,26.6,22.0,15.1,21.0,16.9,10.3,86,80,76,30.33,30.25,2,0,5,0.00
2014-12-19,26.4,25.6,24.4,21.4,20.5,19.4,85,81,79,30.33,30.26,1,0,5,0.00
2014-12-20,29.5,27.8,25.3,26.1,24.0,21.0,87,86,83,30.29,30.19,1,0,5,0.00
2014-12-21,35.3,33.1,29.5,32.1,29.7,26.1,91,87,82,30.19,29.93,5,2,16,0.00
2014-12-22,38.0,34.3,32.4,36.4,31.3,29.1,94,89,82,29.93,29.55,4,1,12,0.09
2014-12-23,41.6,38.6,36.5,40.3,36.8,34.4,95,93,90,29.73,29.48,7,1,20,0.22
2014-12-24,36.5,34.7,33.7,34.4,32.6,30.8,93,92,90,29.70,29.49,4,1,10,0.00
2014-12-25,42.1,35.6,30.9,33.1,30.2,26.3,89,81,68,29.93,29.63,6,2,17,0.00
2014-12-26,43.8,37.9,34.0,35.9,33.2,30.0,91,83,72,30.00,29.89,3,0,8,0.00
2014-12-27,45.7,35.1,25.6,44.1,31.0,19.3,94,85,74,30.13,29.82,9,3,22,0.01
2014-12-28,31.5,23.4,16.2,20.4,16.2,11.4,85,74,59,30.28,30.12,3,0,7,0.00
2014-12-29,25.0,20.0,9.3,20.8,9.5,1.8,85,64,48,30.60,30.27,2,0,10,0.00
2014-12-30,14.8,8.1,3.0,1.7,-5.3,-9.3,71,55,37,30.75,30.60,5,1,13,0.00
2014-12-31,17.0,9.0,-1.8,5.6,-2.8,-9.0,72,59,43,30.64,30.07,11,4,22,0.00
2015-1-1,29.8,20.4,12.1,17.8,11.1,4.5,76,67,55,30.14,29.92,7,2,20,0.00
2015-1-2,31.0,23.8,13.5,20.5,16.2,8.8,85,73,56,30.30,30.13,1,0,5,0.00